Accueil
METAR-TAF:

METAR-TAF

Aéroports :

Corvallis, Oregon, États-Unis

latitude: 44-30N, longitude: 123-17W, altitude: 75 m

Observation

Le bulletin a été fait il y a 1 heure et 3 minutes, à 10:56 UTC
Vent 8 kt de nord-ouest
Température 10°C
Humidité 76%
Pression 1021 hPa
Visibilité: 16.1 km
Ciel couvert à une hauteur de 9500 ft

METAR: KCVO 261056Z AUTO 31008KT 10SM OVC095 10/06 A3014 RMK AO2 SLP207 T01000061

Heure: 04:59 (11:59 UTC)


TAF: absent

Observations et prévisions météorologiques de plus de 4000 aéroports (messages METAR et TAF).

Les stations disponibles sont représentées par des disques jaunes et rouges sur la carte.

Passer la souris dessus pour voir le nom de la station.

Cliquer dessus pour voir les observations et prévisions météorologiques.

Pour changer de carte: cliquez sur les boutons verts avec une croix noire pour zoomer, sur le bouton vert avec un tiret pour effectuer un zoom arrière, ou sur les flèches vertes pour les cartes adjacentes.


METAR-TAF: